Time,TemperatureF,DewpointF,PressureIn,WindDirection,WindDirectionDegrees,WindSpeedMPH,WindSpeedGustMPH,Humidity,HourlyPrecipIn,Conditions,Clouds,dailyrainin,SoftwareType,DateUTC
2013-02-16 00:11:00,26.9,25.0,29.95,North,11,5.0,7.0,91,0.00,,,0.01,weatherlink.com 1.10,2013-02-16 05:11:00,
2013-02-16 00:25:00,26.7,24.0,29.95,NNW,327,4.0,5.0,90,0.00,,,0.01,weatherlink.com 1.10,2013-02-16 05:25:00,
2013-02-16 00:41:00,26.3,24.0,29.95,NW,316,6.0,7.0,91,0.00,,,0.01,weatherlink.com 1.10,2013-02-16 05:41:00,
2013-02-16 00:56:00,26.0,24.0,29.94,NNW,328,2.0,8.0,90,0.00,,,0.01,weatherlink.com 1.10,2013-02-16 05:56:00,
2013-02-16 01:11:00,25.8,23.0,29.94,NNW,342,4.0,10.0,89,0.00,,,0.01,weatherlink.com 1.10,2013-02-16 06:11:00,
2013-02-16 01:26:00,25.5,22.0,29.95,WNW,300,4.0,7.0,87,0.00,,,0.01,weatherlink.com 1.10,2013-02-16 06:26:00,
2013-02-16 01:41:00,25.1,22.0,29.93,NNW,331,4.0,4.0,87,0.00,,,0.01,weatherlink.com 1.10,2013-02-16 06:41:00,
2013-02-16 01:56:00,24.2,21.0,29.93,NNW,334,2.0,4.0,87,0.00,,,0.01,weatherlink.com 1.10,2013-02-16 06:56:00,
2013-02-16 02:11:00,23.9,21.0,29.93,NW,317,0.0,2.0,88,0.00,,,0.01,weatherlink.com 1.10,2013-02-16 07:11:00,
2013-02-16 02:26:00,22.7,20.0,29.93,NW,317,2.0,3.0,89,0.00,,,0.01,weatherlink.com 1.10,2013-02-16 07:26:00,
2013-02-16 02:41:00,21.8,19.0,29.93,NW,317,2.0,3.0,90,0.00,,,0.01,weatherlink.com 1.10,2013-02-16 07:41:00,
2013-02-16 02:58:00,21.6,19.0,29.93,NW,317,1.0,2.0,90,0.00,,,0.01,weatherlink.com 1.10,2013-02-16 07:58:00,
2013-02-16 03:12:00,21.9,20.0,29.93,NW,317,2.0,4.0,90,0.00,,,0.01,weatherlink.com 1.10,2013-02-16 08:12:00,
2013-02-16 03:27:00,21.7,19.0,29.93,NNW,336,3.0,4.0,89,0.00,,,0.01,weatherlink.com 1.10,2013-02-16 08:27:00,
2013-02-16 03:43:00,21.0,18.0,29.93,NNW,342,2.0,5.0,88,0.00,,,0.01,weatherlink.com 1.10,2013-02-16 08:43:00,
2013-02-16 03:57:00,20.2,17.0,29.93,NNW,342,1.0,3.0,88,0.00,,,0.01,weatherlink.com 1.10,2013-02-16 08:57:00,
2013-02-16 04:12:00,18.8,16.0,29.93,NNW,342,0.0,1.0,88,0.00,,,0.01,weatherlink.com 1.10,2013-02-16 09:12:00,
2013-02-16 04:27:00,17.7,15.0,29.92,NNW,342,0.0,2.0,88,0.00,,,0.01,weatherlink.com 1.10,2013-02-16 09:27:00,
2013-02-16 04:43:00,16.6,14.0,29.92,NNW,342,0.0,2.0,90,0.00,,,0.01,weatherlink.com 1.10,2013-02-16 09:43:00,
2013-02-16 04:58:00,16.4,14.0,29.92,NNW,342,3.0,4.0,90,0.00,,,0.01,weatherlink.com 1.10,2013-02-16 09:58:00,
2013-02-16 05:13:00,17.7,16.0,29.92,NNW,342,2.0,2.0,91,0.00,,,0.00,weatherlink.com 1.10,2013-02-16 10:13:00,
2013-02-16 05:28:00,19.7,18.0,29.92,NNW,342,2.0,3.0,91,0.00,,,0.00,weatherlink.com 1.10,2013-02-16 10:28:00,
2013-02-16 05:43:00,21.2,18.0,29.92,WNW,298,3.0,5.0,88,0.00,,,0.00,weatherlink.com 1.10,2013-02-16 10:43:00,
2013-02-16 05:58:00,21.2,18.0,29.93,NNW,340,3.0,5.0,86,0.00,,,0.00,weatherlink.com 1.10,2013-02-16 10:58:00,
2013-02-16 06:14:00,21.3,18.0,29.93,NNW,329,4.0,9.0,86,0.00,,,0.00,weatherlink.com 1.10,2013-02-16 11:14:00,
2013-02-16 06:28:00,21.1,17.0,29.93,North,349,6.0,9.0,85,0.00,,,0.00,weatherlink.com 1.10,2013-02-16 11:28:00,
2013-02-16 07:02:00,20.0,16.0,29.95,NNW,342,0.0,3.0,83,0.00,,,0.00,weatherlink.com 1.10,2013-02-16 12:02:00,
2013-02-16 07:14:00,19.8,15.0,29.95,North,355,4.0,6.0,80,0.00,,,0.00,weatherlink.com 1.10,2013-02-16 12:14:00,
2013-02-16 07:29:00,19.2,14.0,29.95,NNW,330,3.0,8.0,80,0.00,,,0.00,weatherlink.com 1.10,2013-02-16 12:29:00,
2013-02-16 07:44:00,19.1,14.0,29.95,NNW,330,2.0,6.0,80,0.00,,,0.00,weatherlink.com 1.10,2013-02-16 12:44:00,
2013-02-16 07:59:00,19.5,14.0,29.95,NNW,338,3.0,6.0,79,0.00,,,0.00,weatherlink.com 1.10,2013-02-16 12:59:00,
2013-02-16 08:15:00,19.8,14.0,29.95,NNW,334,3.0,8.0,78,0.00,,,0.00,weatherlink.com 1.10,2013-02-16 13:15:00,
2013-02-16 08:30:00,19.7,13.0,29.95,NW,317,6.0,10.0,76,0.00,,,0.00,weatherlink.com 1.10,2013-02-16 13:30:00,
2013-02-16 08:45:00,19.7,14.0,29.94,WNW,288,4.0,11.0,77,0.00,,,0.00,weatherlink.com 1.10,2013-02-16 13:45:00,
2013-02-16 09:00:00,19.7,13.0,29.94,NW,308,9.0,12.0,75,0.00,,,0.00,weatherlink.com 1.10,2013-02-16 14:00:00,
2013-02-16 09:15:00,19.9,14.0,29.93,NW,319,4.0,10.0,76,0.00,,,0.00,weatherlink.com 1.10,2013-02-16 14:15:00,
2013-02-16 09:30:00,20.1,14.0,29.93,NW,326,7.0,10.0,76,0.00,,,0.00,weatherlink.com 1.10,2013-02-16 14:30:00,
2013-02-16 09:45:00,20.6,14.0,29.93,NNW,327,3.0,8.0,76,0.00,,,0.00,weatherlink.com 1.10,2013-02-16 14:45:00,
2013-02-16 10:01:00,21.2,14.0,29.93,WSW,245,5.0,10.0,73,0.00,,,0.00,weatherlink.com 1.10,2013-02-16 15:01:00,
2013-02-16 10:16:00,21.5,14.0,29.92,NW,304,3.0,8.0,73,0.00,,,0.00,weatherlink.com 1.10,2013-02-16 15:16:00,
2013-02-16 10:31:00,21.7,14.0,29.92,NW,313,5.0,11.0,73,0.00,,,0.00,weatherlink.com 1.10,2013-02-16 15:31:00,
2013-02-16 10:46:00,21.9,14.0,29.92,NNW,331,8.0,11.0,73,0.01,,,0.01,weatherlink.com 1.10,2013-02-16 15:46:00,
2013-02-16 11:02:00,21.6,15.0,29.92,NW,313,8.0,12.0,75,0.01,,,0.01,weatherlink.com 1.10,2013-02-16 16:02:00,
2013-02-16 11:16:00,21.8,15.0,29.91,NW,326,6.0,11.0,74,0.01,,,0.01,weatherlink.com 1.10,2013-02-16 16:16:00,
2013-02-16 11:31:00,21.8,14.0,29.91,SW,232,8.0,12.0,72,0.01,,,0.01,weatherlink.com 1.10,2013-02-16 16:31:00,
2013-02-16 11:47:00,22.6,15.0,29.91,NNW,331,9.0,10.0,73,0.00,,,0.01,weatherlink.com 1.10,2013-02-16 16:47:00,
2013-02-16 12:02:00,22.7,15.0,29.89,WNW,301,2.0,9.0,71,0.00,,,0.01,weatherlink.com 1.10,2013-02-16 17:02:00,
2013-02-16 12:17:00,22.8,15.0,29.89,NW,321,10.0,14.0,71,0.00,,,0.01,weatherlink.com 1.10,2013-02-16 17:17:00,
2013-02-16 12:32:00,22.7,14.0,29.88,NW,323,5.0,15.0,70,0.00,,,0.01,weatherlink.com 1.10,2013-02-16 17:32:00,
2013-02-16 12:47:00,23.1,14.0,29.87,North,355,4.0,10.0,69,0.00,,,0.01,weatherlink.com 1.10,2013-02-16 17:47:00,
2013-02-16 13:02:00,22.8,14.0,29.87,NNW,332,7.0,10.0,69,0.00,,,0.01,weatherlink.com 1.10,2013-02-16 18:02:00,
2013-02-16 13:18:00,22.9,13.0,29.86,West,263,7.0,10.0,67,0.00,,,0.01,weatherlink.com 1.10,2013-02-16 18:18:00,
2013-02-16 13:34:00,23.6,14.0,29.86,NW,313,7.0,10.0,66,0.00,,,0.01,weatherlink.com 1.10,2013-02-16 18:34:00,
2013-02-16 13:48:00,23.0,14.0,29.86,NNW,330,7.0,14.0,67,0.00,,,0.01,weatherlink.com 1.10,2013-02-16 18:48:00,
2013-02-16 14:03:00,23.3,13.0,29.86,NNW,331,3.0,10.0,65,0.00,,,0.01,weatherlink.com 1.10,2013-02-16 19:03:00,
2013-02-16 14:18:00,23.7,14.0,29.85,WNW,291,2.0,12.0,66,0.00,,,0.01,weatherlink.com 1.10,2013-02-16 19:18:00,
2013-02-16 14:33:00,23.5,14.0,29.85,North,5,10.0,11.0,68,0.00,,,0.01,weatherlink.com 1.10,2013-02-16 19:33:00,
2013-02-16 14:49:00,23.3,14.0,29.85,NNW,344,4.0,10.0,68,0.00,,,0.01,weatherlink.com 1.10,2013-02-16 19:49:00,
2013-02-16 15:03:00,23.2,14.0,29.84,North,355,6.0,8.0,69,0.00,,,0.01,weatherlink.com 1.10,2013-02-16 20:03:00,
2013-02-16 15:18:00,23.1,14.0,29.85,North,5,6.0,11.0,68,0.00,,,0.01,weatherlink.com 1.10,2013-02-16 20:18:00,
2013-02-16 15:33:00,22.5,13.0,29.85,NW,314,7.0,11.0,68,0.00,,,0.01,weatherlink.com 1.10,2013-02-16 20:33:00,
2013-02-16 15:48:00,22.5,13.0,29.85,North,351,4.0,9.0,66,0.00,,,0.01,weatherlink.com 1.10,2013-02-16 20:48:00,
2013-02-16 16:04:00,22.5,13.0,29.85,North,9,8.0,9.0,67,0.00,,,0.01,weatherlink.com 1.10,2013-02-16 21:04:00,
2013-02-16 16:19:00,22.1,12.0,29.85,NW,323,6.0,12.0,66,0.00,,,0.01,weatherlink.com 1.10,2013-02-16 21:19:00,
2013-02-16 16:34:00,21.8,12.0,29.85,NW,312,7.0,8.0,66,0.00,,,0.01,weatherlink.com 1.10,2013-02-16 21:34:00,
2013-02-16 16:49:00,21.6,12.0,29.86,NW,324,7.0,9.0,66,0.00,,,0.01,weatherlink.com 1.10,2013-02-16 21:49:00,
2013-02-16 17:04:00,21.4,12.0,29.86,NW,317,6.0,11.0,66,0.00,,,0.01,weatherlink.com 1.10,2013-02-16 22:04:00,
2013-02-16 17:19:00,21.2,12.0,29.86,NNW,331,4.0,7.0,67,0.00,,,0.01,weatherlink.com 1.10,2013-02-16 22:19:00,
2013-02-16 17:34:00,21.1,11.0,29.86,NNW,327,6.0,9.0,65,0.00,,,0.01,weatherlink.com 1.10,2013-02-16 22:34:00,
2013-02-16 17:51:00,20.7,11.0,29.86,NW,321,5.0,9.0,65,0.00,,,0.01,weatherlink.com 1.10,2013-02-16 22:51:00,
2013-02-16 18:04:00,20.6,10.0,29.86,NNW,338,3.0,8.0,63,0.00,,,0.01,weatherlink.com 1.10,2013-02-16 23:04:00,
2013-02-16 18:19:00,20.3,9.0,29.87,NNW,338,9.0,10.0,63,0.00,,,0.01,weatherlink.com 1.10,2013-02-16 23:19:00,
2013-02-16 18:35:00,20.0,9.0,29.88,NNW,348,4.0,8.0,63,0.00,,,0.01,weatherlink.com 1.10,2013-02-16 23:35:00,
2013-02-16 18:52:00,19.7,9.0,29.87,North,5,6.0,9.0,62,0.00,,,0.01,weatherlink.com 1.10,2013-02-16 23:52:00,
2013-02-16 19:05:00,19.5,9.0,29.87,NNW,327,5.0,9.0,63,0.00,,,0.01,weatherlink.com 1.10,2013-02-17 00:05:00,
2013-02-16 19:20:00,19.3,9.0,29.87,SSW,210,5.0,10.0,63,0.00,,,0.01,weatherlink.com 1.10,2013-02-17 00:20:00,
2013-02-16 19:35:00,19.3,8.0,29.87,NNW,335,10.0,12.0,62,0.00,,,0.01,weatherlink.com 1.10,2013-02-17 00:35:00,
2013-02-16 19:50:00,19.1,8.0,29.86,NNW,346,10.0,10.0,63,0.00,,,0.01,weatherlink.com 1.10,2013-02-17 00:50:00,
2013-02-16 20:05:00,18.9,9.0,29.86,NNW,339,7.0,11.0,64,0.00,,,0.01,weatherlink.com 1.10,2013-02-17 01:05:00,
2013-02-16 20:20:00,18.9,9.0,29.85,NW,305,7.0,11.0,65,0.00,,,0.01,weatherlink.com 1.10,2013-02-17 01:20:00,
2013-02-16 20:35:00,18.8,8.0,29.85,NNW,342,11.0,14.0,64,0.00,,,0.01,weatherlink.com 1.10,2013-02-17 01:35:00,
2013-02-16 20:51:00,18.7,8.0,29.84,NNW,330,9.0,12.0,64,0.00,,,0.01,weatherlink.com 1.10,2013-02-17 01:51:00,
2013-02-16 21:07:00,18.7,8.0,29.84,North,360,10.0,18.0,62,0.00,,,0.01,weatherlink.com 1.10,2013-02-17 02:07:00,
2013-02-16 21:21:00,18.5,7.0,29.84,NNW,338,3.0,9.0,62,0.00,,,0.01,weatherlink.com 1.10,2013-02-17 02:21:00,
2013-02-16 21:36:00,18.3,7.0,29.84,North,5,7.0,12.0,62,0.00,,,0.01,weatherlink.com 1.10,2013-02-17 02:36:00,
2013-02-16 21:51:00,18.3,7.0,29.83,NW,317,4.0,13.0,61,0.00,,,0.01,weatherlink.com 1.10,2013-02-17 02:51:00,
2013-02-16 22:06:00,18.2,7.0,29.84,NNW,331,7.0,12.0,61,0.00,,,0.01,weatherlink.com 1.10,2013-02-17 03:06:00,
2013-02-16 22:21:00,18.1,7.0,29.82,NNW,331,5.0,12.0,63,0.00,,,0.01,weatherlink.com 1.10,2013-02-17 03:21:00,
2013-02-16 22:37:00,18.1,7.0,29.82,NW,326,6.0,12.0,63,0.00,,,0.01,weatherlink.com 1.10,2013-02-17 03:37:00,
2013-02-16 22:52:00,18.1,7.0,29.81,NNW,345,9.0,11.0,63,0.00,,,0.01,weatherlink.com 1.10,2013-02-17 03:52:00,
2013-02-16 23:07:00,18.0,8.0,29.81,NW,324,6.0,9.0,64,0.00,,,0.01,weatherlink.com 1.10,2013-02-17 04:07:00,
2013-02-16 23:22:00,17.9,8.0,29.80,WNW,295,8.0,11.0,64,0.00,,,0.01,weatherlink.com 1.10,2013-02-17 04:22:00,
2013-02-16 23:37:00,17.9,7.0,29.80,NW,313,9.0,11.0,63,0.00,,,0.01,weatherlink.com 1.10,2013-02-17 04:37:00,
2013-02-16 23:52:00,17.9,7.0,29.79,NE,44,6.0,9.0,63,0.00,,,0.01,weatherlink.com 1.10,2013-02-17 04:52:00,